STARLINK-34170, 63955

Orbit data source: Space-Track

STARLINK-34170, 63955 is a payload satellite owned by SpaceX/Seattle (US) in LEO that was launched on Tue, 13 May 2025 UTC via an FALCON 9 launch vehicle from the Air Force Eastern Test Range (AFETR). Payload-class satellites include a variety of spacecraft equipped with specific instruments for various scientific and technological missions. These include communications satellites like Starlink; space stations such as the ISS; scientific satellites like the Hubble; Earth observation satellites from companies like Planet Labs, Umbra, and HawkEye 360; GPS; miniature CubeSats for education and research; and military/defense satellites.

Loading next visibility...
Identifier
63955, 2025-099D
Orbit
LEO
Country
Flag of USUS
Related business
Manufacturer
SpaceX/Seattle
Mission
Operational Commercial Communications
Bus & Motor
STARLINK V2MO, Unknown motor
Mass
575 kg wet, ~530 kg dry
Launch date (UTC)
2025-05-13 (7 months ago)
Launch vehicle
FALCON 9
Launch site
Air Force Eastern Test Range (AFETR)
Object type
Payload
Rocket body
Debris
Shape & HBR
Box + 2 Pan, 17.7 m
Radar Cross Section
36.964 m², Large (>1 m²)

Expand to show TLE details & history
Last TLE update: 13 hours ago

TLE from 13 hours ago
0 STARLINK-34170
1 63955U 25099D   25346.93016070  .00048170  00000-0  17475-2 0  9995
2 63955  43.0016 306.5345 0001298 275.0692  85.0011 15.27601234 34059
Epoch: 2025-12-12T22:19Z
TLE epoch observation values (Epoch: 2025-12-12T22:19:25.884Z)
Latitude
-0.00005°
Longitude
-110.18813°
Altitude
482.684 km
Speed
7.626 km/s
True Right ascension
20h 26m 08s
True Declination
0° 00' 00"
Sunlit
Object was in daylight at epoch
Visualization orbit readout
Latitude
Unknown
Longitude
Unknown
Altitude
Unknown
Speed
Unknown
Apparent Right ascension
Unknown
Apparent Declination
Unknown
Sunlit
N/A
Visualization observer readout
Local Sidereal Time
09:41:27
Azimuth
Unknown
Elevation
Unknown
Doppler factor
Unknown
Orbital elements
Apogee altitude
485.821 km
Perigee altitude
484.04 km
Semi-major axis
6,863.067 km
Eccentricity
0.00013
Inclination
43.0016°
RAAN
306.5345°
Arg. of periapsis
275.0692°
True anomaly
85.01592°
Mean anomaly
85.0011°
Eccentric anomaly
85.00851°
Mean motion
3.81738 °/min
Orbital period
94.31 mins
BSTAR
0.0017475
Loading maneuver chart data...
Computing Atmospheric mass density...
Loading historical data...
Loading historical data...
Loading historical data...
Loading historical data...
Loading historical data...
Loading historical data...
Loading historical data...

Documentation

Showing up to 5 results
|